Regional Weather Roundup
Issued by NWS State College, PA

Home | Current Version | Previous Version | Text Only | Print | Product List | Glossary On
Versions: 1 2 3 4 5 6 7 8 9 10 11 12 13 14 15 16 17 18 19 20 21 22 23 24 25 26 27 28 29 30 31 32 33 34 35 36 37 38 39 40 41 42 43 44 45 46 47 48 49 50
000
ASUS41 KCTP 202203
RWRCTP

REGIONAL WEATHER ROUNDUP
NATIONAL WEATHER SERVICE STATE COLLEGE PA
600 PM EDT SAT SEP 20 2014

Note: "fair" indicates few or no clouds below 12,000 feet with no
significant weather and/or obstructions to visibility.

* = STATION THAT DOES NOT REPORT PRECIPITATION /E.G. RAIN...SNOW...ETC/
    THUNDER OR FOG.

PAZ002>004-007>009-013>016-020>023-029>032-202300-
WESTERN PENNSYLVANIA

CITY           SKY/WX    TMP DP  RH WIND       PRES   REMARKS
ERIE           SUNNY     78  58  49 SW20G28   29.89S
MEADVILLE      MOSUNNY   73  61  65 S12G21    29.94F
FRANKLIN*      PTSUNNY   72  59  64 S15G22    29.99S
NEW CASTLE     NOT AVBL
BEAVER COUNTY  NOT AVBL
BUTLER*        MOSUNNY   75  61  60 SW8       30.00F
PITTSBURGH INT MOSUNNY   77  61  57 SW12      29.98F
PITTSBURGH     PTSUNNY   77  59  53 S9        29.99F
INDIANA*       MOSUNNY   77  61  57 SW10      30.05F
LATROBE        MOSUNNY   77  63  61 SW8       30.02F
WASHINGTON CO* MOSUNNY   77  63  61 S6        30.01F
$$

PAZ004>006-010>012-017>019-024>028-033>037-041-042-045-046-049>053-202300-
CENTRAL PENNSYLVANIA

CITY           SKY/WX    TMP DP  RH WIND       PRES   REMARKS
BRADFORD       MOSUNNY   71  58  63 S10G20    30.00F
DUBOIS         MOSUNNY   73  59  61 S8G21     30.01F
CLEARFIELD     PTSUNNY   74  60  61 VRB3G17   30.03S
JOHNSTOWN      MOSUNNY   74  55  51 SW8       30.06F
ALTOONA        MOSUNNY   74  56  53 S14       30.05F
STATE COLLEGE  NOT AVBL
WILLIAMSPORT   MOSUNNY   75  57  53 S15G26    30.01F
SELINSGROVE    SUNNY     76  58  53 S10G18    30.04F
FT INDIANTOWN  CLOUDY    75  56  52 S12       30.08F
CAPITAL CITY   MOSUNNY   77  58  51 S7G17     30.07F
HARRISBURG     MOSUNNY   77  58  51 SE13      30.06F
YORK           SUNNY     76  57  51 SE9       30.08F
$$

PAZ038>040-043-044-047-048-054-055-060>062-067>071-202300-
EASTERN PENNSYLVANIA

CITY           SKY/WX    TMP DP  RH WIND       PRES   REMARKS
SCRANTON       PTSUNNY   72  56  57 S9        30.08F
MOUNT POCONO   CLOUDY    67  55  65 S9        30.14F
ALLENTOWN      SUNNY     76  56  49 S12G20    30.09F
QUAKERTOWN*    PTCLDY    75  59  57 S7        30.12F
READING        SUNNY     76  58  53 S10       30.08F
LANCASTER      SUNNY     76  56  49 S14       30.08F
COATESVILLE    CLEAR     72  57  60 SE6       30.13S
POTTSTOWN      SUNNY     75  58  55 S6        30.12F
BLUE BELL      MOSUNNY   75  61  60 S7        30.11S
DOYLESTOWN     CLOUDY    72  59  63 VRB7      30.12F
WILLOW GROVE   NOT AVBL
NORTH PHILA    SUNNY     76  57  51 SE9       30.13F
PHILADELPHIA   MOSUNNY   76  59  55 SE10      30.12F
$$


USA.gov is the U.S. government's official web portal to all federal, state and local government web resources and services.